Temperature
20 19 20 19 19 19 19 19 19 19 19 19 19 19 19 19 19 19 18 18 18 18 18 18 18 18 18 18 18 18 18 18 18 18 17 17 17 17 17 17 16 16 17
20 19 20 19 19 19 19 19 19 19 19 19 19 19 19 19 19 19 18 18 18 18 18 18 18 18 18 18 18 18 18 17 17 17 17 17 17 17 17 16 16 16 17
20 19 20 19 19 19 19 19 19 19 19 19 19 19 19 19 19 19 18 18 18 18 18 18 18 18 18 18 18 18 18 17 17 17 17 17 17 17 17 17 17 17 17
20 19 19 20 19 19 19 19 19 19 19 19 19 19 19 19 19 18 18 18 18 18 18 18 18 18 18 18 18 17 17 17 17 17 17 17 16 17 17 17 17 17 17
20 19 19 20 20 20 19 19 19 19 19 19 19 19 19 19 18 18 18 18 18 18 18 18 18 18 18 18 18 17 17 17 17 17 17 17 16 17 17 17 17 17 17
19 19 19 20 20 19 19 19 19 19 19 19 19 19 19 18 18 18 18 18 18 18 18 18 18 18 18 18 18 18 18 17 17 17 17 17 16 17 17 17 17 17 17
20 19 19 20 20 19 19 19 19 19 19 19 19 19 18 18 18 18 18 18 18 18 18 18 18 18 18 18 18 18 17 17 17 17 16 16 17 17 17 17 17 17 17
20 19 19 20 20 19 19 19 19 19 19 19 19 18 18 18 18 18 18 18 18 18 18 18 18 17 17 17 17 17 17 17 17 17 17 16 17 17 17 17 17 17 17
20 19 18 19 19 19 19 19 19 19 19 19 19 18 18 18 18 18 18 18 18 18 18 18 17 17 17 17 17 17 17 17 18 17 17 16 17 17 17 17 17 17 17
20 19 18 18 18 18 19 19 19 19 19 19 19 18 18 18 18 18 18 18 18 18 18 17 17 17 17 17 17 17 17 17 18 17 17 17 17 17 17 17 17 17 17
19 19 19 18 18 18 18 18 19 19 19 19 18 18 18 17 17 17 17 18 18 18 17 17 17 17 17 17 17 17 17 17 18 18 17 17 17 17 17 17 17 17 17
19 19 19 19 18 18 18 18 18 18 18 18 17 17 17 17 17 17 17 17 17 17 18 18 18 17 17 17 17 17 17 17 18 17 17 17 17 17 17 17 17 17 17
19 19 19 18 18 18 18 18 18 18 18 17 17 17 17 17 17 17 17 17 17 17 17 17 17 17 17 17 17 17 17 18 18 17 17 17 17 17 17 17 17 17 16
19 18 18 18 18 18 18 18 18 18 18 18 18 17 17 17 17 17 17 17 17 17 17 17 17 17 17 17 17 17 17 17 17 17 17 17 17 17 17 17 17 16 16
18 18 18 18 18 18 18 18 18 18 18 18 18 18 17 17 17 17 17 17 17 17 17 17 17 16 17 17 17 17 17 17 17 17 17 17 17 17 17 17 16 16 16
18 18 18 18 18 18 18 18 18 18 18 18 18 17 17 17 17 17 17 17 17 17 17 17 17 17 17 17 17 17 17 17 16 16 17 17 17 17 16 16 16 16 16
18 18 18 18 18 18 18 18 18 18 18 18 18 18 18 17 17 17 17 17 17 17 17 17 16 17 17 17 17 17 17 17 16 16 16 16 16 17 16 16 16 16 16
18 18 18 17 18 18 18 18 18 18 18 18 17 18 18 17 17 17 17 17 17 17 17 17 17 17 17 17 17 17 17 17 16 16 16 16 16 16 16 16 16 16 16
18 18 18 18 18 18 18 18 18 18 18 18 17 17 18 18 18 17 17 17 17 17 17 17 17 17 17 17 17 17 17 17 17 17 16 16 16 16 16 16 16 16 16
18 18 18 18 18 18 18 18 17 17 18 17 17 17 17 18 17 17 17 17 17 17 17 17 16 16 17 17 17 17 17 17 17 17 17 17 16 16 16 16 16 16 16
17 17 18 18 18 17 17 17 17 17 17 17 17 17 17 17 17 17 17 17 17 17 16 16 16 16 16 16 17 17 17 17 17 17 17 17 17 16 16 16 16 16 16
17 17 17 18 18 17 17 17 17 17 17 17 17 17 17 17 17 17 17 17 17 17 16 16 16 17 17 16 17 18 18 18 16 17 17 16 17 17 16 16 16 16 16
17 17 17 17 17 17 17 17 17 17 17 17 17 17 17 17 17 17 17 17 17 17 17 16 16 16 16 16 17 18 18 19 18 17 17 17 16 17 17 16 16 16 16
17 17 17 17 17 17 17 17 17 17 17 17 17 17 17 17 17 17 17 17 17 17 17 16 16 16 16 17 16 16 17 18 18 18 17 17 16 16 17 17 16 16 16
17 17 17 17 17 17 17 17 17 17 17 17 17 17 17 17 17 17 17 17 17 16 16 16 16 16 16 17 17 17 16 16 17 18 18 18 17 17 16 16 16 16 16
17 17 17 17 17 17 17 17 17 17 17 17 17 17 17 17 17 17 17 17 16 16 16 16 16 16 16 16 16 17 17 17 17 18 18 18 18 17 16 16 16 16 16
Wind_Speed
16 19 20 17 17 18 18 18 18 18 18 17 16 16 15 14 13 12 12 12 11 11 11 11 12 12 12 13 13 13 14 14 15 15 16 16 16 16 16 15 15 17 17
20 22 21 19 19 18 18 18 18 18 18 17 16 16 15 14 13 12 12 12 11 12 12 12 12 13 13 13 13 13 13 14 14 15 16 16 15 15 13 11 13 16 16
22 23 22 20 19 19 19 18 18 18 17 17 16 15 15 14 13 12 12 12 12 12 12 12 13 13 13 13 13 13 13 13 13 13 12 14 15 14 14 15 17 16 15
22 23 22 22 20 19 19 18 18 18 17 17 16 15 14 14 13 12 12 12 12 12 12 12 12 12 12 12 12 13 13 13 11 9 10 12 14 14 14 15 15 15 15
21 22 22 22 21 20 19 18 18 17 17 16 16 15 14 14 13 12 12 12 12 12 12 12 12 12 12 12 12 12 12 11 7 5 11 11 13 13 13 14 14 14 14
21 22 24 22 21 20 19 18 18 17 16 16 15 14 14 14 13 13 12 12 12 12 12 12 12 11 11 11 11 11 10 8 8 10 10 10 13 12 12 13 13 13 13
21 21 24 22 21 20 19 18 18 17 16 15 15 14 14 13 13 13 12 12 12 12 12 11 11 10 10 10 10 10 8 4 5 9 8 10 13 12 12 12 12 12 12
21 21 23 22 21 20 19 18 17 17 16 15 14 14 13 13 13 12 12 12 12 11 11 10 10 9 8 8 8 8 7 5 8 8 8 11 13 11 11 11 11 11 11
20 19 21 21 20 19 18 18 17 16 16 15 14 14 13 13 13 12 12 12 11 11 10 9 9 8 7 7 8 8 6 3 4 7 8 10 12 10 10 10 10 10 10
18 18 19 20 19 19 18 18 17 16 15 14 14 14 13 13 12 12 12 11 11 10 9 9 8 7 7 7 8 8 7 6 5 7 7 11 11 9 9 9 10 10 10
17 17 18 18 18 18 18 18 17 16 15 15 14 13 13 12 12 11 12 11 10 9 8 8 7 7 7 9 8 8 8 4 5 5 7 13 10 9 9 9 9 9 9
19 18 16 17 17 16 15 16 15 14 14 12 12 13 10 8 7 9 13 9 9 8 8 7 6 7 8 8 9 9 4 4 5 5 9 11 9 8 8 8 8 8 8
20 18 16 15 15 15 12 13 11 11 11 11 11 10 7 8 8 8 9 9 8 8 7 8 7 5 3 3 3 3 3 3 4 5 10 10 8 7 7 7 8 7 7
19 19 17 16 14 13 12 11 10 10 10 9 11 11 9 6 6 6 5 7 6 6 4 4 4 3 2 3 2 2 3 2 3 5 9 9 7 6 7 7 7 7 7
18 18 17 16 15 13 11 9 10 9 10 10 10 10 8 7 6 6 5 4 4 4 6 4 3 3 3 4 3 3 2 3 3 3 7 8 7 6 6 7 7 7 8
18 17 16 16 15 13 11 10 9 9 9 10 10 11 10 7 6 6 6 5 4 4 3 3 4 4 3 2 2 2 2 3 4 2 4 8 8 8 7 7 7 7 8
17 16 16 16 15 15 14 12 10 10 10 9 9 10 9 8 7 6 5 5 5 5 5 4 4 3 4 3 3 3 3 2 3 3 3 4 7 9 8 6 6 7 7
16 16 16 15 15 15 13 12 9 10 10 9 9 10 10 8 8 6 5 5 5 5 4 4 4 3 3 2 2 2 2 3 4 4 4 4 4 6 9 8 6 6 7
16 16 16 15 15 15 14 11 9 8 9 9 9 9 10 9 9 7 5 5 6 5 4 4 4 3 3 2 3 3 3 3 4 5 3 4 5 4 5 10 9 7 7
16 16 17 16 15 14 12 10 8 8 9 9 9 8 10 9 9 7 6 6 6 4 4 3 3 2 2 3 2 2 2 3 4 4 5 5 5 5 5 4 7 9 8
15 16 17 17 15 13 11 11 11 11 10 9 9 10 11 10 10 8 6 6 6 5 5 5 4 5 4 3 3 3 4 5 4 4 4 4 5 5 4 4 4 4 7
16 16 16 16 15 15 12 11 10 10 9 9 8 9 11 10 10 9 7 7 7 5 6 5 5 4 3 4 4 3 3 5 5 5 5 5 4 5 5 5 5 4 5
15 16 15 16 16 16 14 11 9 8 7 8 8 8 9 10 10 9 9 8 7 7 7 7 6 7 5 5 4 4 3 2 4 5 4 4 4 4 4 4 6 6 5
14 14 14 15 15 15 15 13 14 12 11 10 9 8 9 10 10 10 9 8 8 7 6 7 7 6 6 5 5 4 4 3 3 3 5 5 5 5 4 4 5 6 5
13 14 14 14 14 14 14 15 14 12 10 8 9 9 9 9 9 10 9 8 8 7 7 6 5 7 6 6 5 5 4 4 6 5 3 4 5 5 5 5 4 4 4
12 12 13 14 13 14 15 15 15 13 11 11 11 10 9 8 8 10 10 8 8 7 7 7 6 8 6 5 5 5 5 5 5 5 5 5 5 4 4 4 5 5 5
Wind_Direction
159 150 148 151 147 144 143 142 141 141 140 137 135 133 133 131 127 122 118 114 109 106 103 102 102 103 103 101 102 104 107 108 109 110 109 108 108 109 113 120 122 109 111
152 148 149 151 148 145 143 141 140 140 140 138 137 135 134 132 127 123 120 116 111 108 106 105 105 104 104 103 104 106 108 110 112 115 117 112 109 109 108 101 94 107 114
150 147 153 152 150 146 144 142 140 139 139 138 138 136 135 132 128 125 121 117 113 109 106 105 105 105 104 105 104 107 109 111 115 124 135 119 111 107 104 99 102 111 112
150 150 155 151 151 148 145 143 141 140 139 139 138 137 134 131 129 125 121 117 113 109 107 107 106 105 105 104 104 106 108 111 122 156 128 113 114 109 110 109 111 112 112
150 150 149 153 152 149 146 144 142 141 140 140 138 137 134 132 128 123 120 116 112 110 107 106 106 106 106 105 106 108 109 115 140 151 102 106 106 112 114 114 113 113 113
152 153 150 156 153 151 148 146 143 142 142 140 139 137 134 131 128 124 119 115 113 111 108 106 106 106 108 109 110 111 115 137 174 107 109 112 111 118 118 117 115 115 115
156 154 151 157 154 153 151 148 146 145 143 142 140 137 133 130 127 124 120 116 113 111 109 107 107 108 110 114 115 118 123 177 122 109 113 105 110 120 120 120 118 117 118
158 154 151 158 157 155 153 151 148 147 144 142 139 135 132 129 127 124 122 119 116 114 112 109 108 107 110 115 120 125 138 213 128 116 111 105 113 123 122 120 120 119 118
160 155 156 161 160 158 156 154 152 149 146 142 139 137 133 130 128 126 124 122 120 118 115 112 108 104 106 114 123 132 140 262 130 119 119 112 121 127 125 124 125 123 121
164 161 161 163 162 163 161 158 155 152 149 145 142 139 135 133 131 132 134 123 122 121 120 116 111 107 108 114 122 131 153 210 133 127 118 118 128 135 135 133 131 129 127
170 168 168 165 166 167 163 158 159 155 153 152 151 147 156 154 145 152 120 123 126 124 122 119 116 121 133 131 129 145 180 175 122 115 105 116 137 142 142 140 139 137 136
174 175 173 169 167 168 164 160 165 164 161 168 155 160 165 143 143 130 121 130 131 130 131 126 137 171 204 151 147 181 175 139 128 131 114 127 144 151 149 149 149 150 148
175 177 175 172 169 171 163 164 166 163 162 166 158 163 153 154 152 147 148 150 153 162 160 150 182 189 164 104 138 152 125 139 135 126 122 141 157 161 162 163 164 163 161
179 179 176 173 174 174 168 166 167 165 167 166 161 170 163 166 163 153 158 153 163 162 155 172 176 156 144 142 146 136 146 154 128 108 125 150 168 173 175 174 173 176 176
181 181 178 175 175 174 170 175 172 171 170 165 163 171 172 170 172 160 153 159 166 156 167 182 165 148 167 161 162 144 141 132 123 138 129 151 171 177 182 185 184 184 186
182 181 178 178 177 176 175 177 172 172 170 170 171 171 181 178 169 167 167 168 169 176 164 174 156 167 177 148 146 133 150 139 127 152 142 155 169 176 185 190 193 193 194
185 182 179 180 179 181 181 180 176 174 175 174 170 170 180 182 174 182 174 181 173 164 164 180 168 178 180 173 160 164 166 164 148 165 174 170 169 175 182 191 200 203 206
187 184 183 184 182 185 184 182 179 180 174 176 173 174 181 184 183 190 185 178 165 174 176 170 193 192 182 189 176 190 173 171 177 182 186 187 189 174 171 179 194 206 213
188 185 184 185 184 185 182 180 181 178 178 179 178 178 181 187 187 193 189 165 179 179 183 194 167 202 187 203 194 185 201 197 191 193 190 193 184 196 177 165 187 200 209
187 184 184 185 185 183 178 175 178 182 184 184 182 181 183 188 191 194 188 175 191 184 187 189 161 195 207 216 230 174 208 197 207 190 200 189 190 200 205 184 190 189 193
188 187 186 185 182 182 180 179 181 183 186 186 186 183 188 192 190 195 193 175 199 192 194 190 193 188 208 197 211 201 195 198 192 195 205 199 187 192 190 194 217 196 185
189 189 187 184 183 185 183 183 186 182 186 186 186 181 191 191 192 195 198 194 194 191 196 197 207 223 209 203 229 224 206 186 196 194 191 202 204 194 194 197 190 202 228
189 189 187 185 185 187 183 180 178 172 179 181 185 186 192 193 195 203 196 204 196 206 198 201 202 218 220 208 225 248 252 232 171 179 198 205 207 215 218 199 200 194 209
191 190 186 184 186 186 185 186 183 184 187 191 187 186 188 194 196 198 200 202 205 212 198 208 204 214 225 218 202 237 278 331 263 194 194 191 201 217 231 233 213 199 208
190 190 187 185 187 188 191 191 191 193 192 188 187 182 188 191 196 197 200 202 206 215 209 216 196 222 222 236 225 214 220 225 248 264 228 202 202 205 208 226 236 227 210
186 187 186 185 188 189 192 193 194 193 190 189 189 185 190 190 194 197 200 200 206 211 204 208 209 212 232 242 250 236 229 230 232 240 243 230 224 205 203 226 233 223 223
Height
1517 1519 1520 1524 1527 1529 1532 1534 1536 1538 1540 1541 1542 1543 1545 1546 1547 1548 1549 1550 1551 1552 1553 1553 1554 1555 1556 1556 1556 1557 1557 1558 1559 1559 1560 1561 1562 1563 1564 1564 1566 1566 1566
1516 1519 1521 1524 1528 1530 1533 1536 1538 1540 1541 1543 1544 1545 1546 1548 1549 1550 1551 1552 1553 1554 1555 1555 1556 1557 1557 1558 1559 1559 1560 1560 1561 1562 1563 1564 1564 1565 1566 1567 1568 1568 1569
1516 1518 1521 1525 1529 1532 1534 1537 1539 1541 1543 1544 1546 1547 1548 1549 1551 1552 1553 1554 1555 1556 1557 1557 1558 1559 1559 1560 1561 1561 1562 1563 1563 1564 1566 1567 1567 1568 1569 1569 1570 1571 1571
1517 1520 1523 1526 1530 1533 1536 1538 1540 1542 1544 1546 1547 1549 1550 1551 1552 1554 1555 1556 1557 1558 1559 1559 1560 1561 1561 1562 1563 1563 1564 1565 1566 1567 1570 1570 1570 1570 1571 1572 1573 1573 1574
1518 1521 1523 1527 1531 1534 1537 1540 1542 1544 1545 1547 1549 1550 1552 1553 1554 1555 1556 1558 1559 1560 1560 1561 1562 1563 1564 1564 1565 1566 1567 1567 1569 1571 1572 1573 1573 1573 1574 1574 1575 1576 1577
1518 1522 1524 1528 1532 1535 1538 1541 1543 1545 1547 1549 1550 1552 1553 1555 1556 1557 1558 1559 1560 1561 1562 1563 1564 1565 1566 1567 1567 1568 1569 1570 1572 1574 1574 1575 1575 1575 1576 1577 1578 1578 1579
1520 1524 1525 1529 1533 1536 1539 1542 1544 1546 1548 1550 1552 1553 1555 1556 1557 1559 1560 1561 1562 1563 1564 1565 1566 1567 1568 1569 1570 1570 1571 1572 1576 1576 1576 1577 1576 1577 1578 1579 1580 1580 1581
1521 1525 1526 1530 1533 1537 1540 1543 1545 1547 1549 1551 1553 1555 1556 1558 1559 1560 1562 1563 1564 1565 1566 1567 1568 1569 1570 1571 1572 1572 1573 1574 1578 1579 1579 1579 1578 1579 1580 1581 1582 1582 1583
1522 1526 1527 1531 1534 1537 1540 1543 1546 1548 1550 1552 1554 1556 1558 1559 1561 1562 1563 1564 1566 1567 1568 1569 1570 1571 1572 1573 1573 1574 1575 1576 1580 1580 1581 1580 1580 1581 1582 1583 1583 1584 1585
1522 1526 1528 1532 1535 1538 1541 1544 1547 1549 1551 1553 1555 1557 1559 1560 1562 1563 1565 1566 1567 1568 1569 1571 1572 1573 1574 1575 1575 1576 1577 1578 1582 1582 1583 1581 1581 1582 1583 1584 1585 1586 1586
1522 1525 1529 1532 1535 1539 1542 1544 1547 1549 1552 1554 1556 1558 1560 1563 1565 1566 1566 1567 1568 1570 1571 1572 1573 1574 1575 1576 1577 1578 1579 1581 1583 1583 1583 1582 1582 1583 1584 1585 1586 1587 1588
1519 1524 1528 1532 1534 1539 1542 1544 1547 1550 1552 1555 1557 1559 1562 1564 1566 1567 1566 1568 1569 1571 1572 1573 1575 1576 1577 1579 1579 1579 1581 1582 1583 1584 1583 1583 1583 1584 1585 1586 1587 1588 1589
1517 1522 1527 1530 1533 1537 1541 1544 1548 1550 1552 1555 1557 1559 1562 1564 1566 1567 1569 1569 1571 1572 1574 1574 1576 1579 1580 1580 1581 1581 1582 1583 1584 1585 1584 1584 1584 1585 1586 1587 1588 1589 1590
1516 1520 1525 1528 1532 1536 1540 1543 1546 1550 1552 1555 1556 1559 1562 1564 1566 1568 1569 1571 1572 1573 1574 1576 1577 1578 1579 1580 1581 1582 1582 1583 1584 1585 1584 1584 1585 1586 1586 1587 1588 1589 1590
1514 1518 1523 1526 1529 1533 1537 1542 1546 1549 1552 1554 1556 1558 1561 1564 1566 1567 1568 1570 1572 1573 1574 1575 1577 1578 1579 1580 1581 1582 1583 1583 1584 1585 1585 1584 1585 1586 1587 1588 1588 1589 1590
1512 1516 1520 1524 1528 1531 1535 1539 1543 1547 1550 1553 1555 1558 1560 1563 1565 1566 1568 1569 1571 1573 1574 1575 1577 1577 1579 1580 1581 1581 1582 1583 1583 1584 1585 1584 1585 1586 1586 1587 1588 1589 1590
1510 1514 1518 1522 1526 1529 1533 1538 1542 1546 1549 1552 1554 1556 1559 1562 1564 1566 1568 1569 1571 1572 1572 1574 1575 1577 1578 1579 1580 1581 1582 1582 1583 1583 1584 1585 1585 1585 1586 1587 1587 1588 1589
1508 1512 1516 1520 1523 1527 1531 1535 1540 1544 1547 1550 1553 1556 1558 1561 1562 1564 1567 1569 1569 1571 1573 1574 1575 1577 1578 1579 1579 1580 1581 1581 1582 1583 1584 1584 1585 1586 1586 1586 1587 1587 1588
1504 1508 1513 1517 1521 1524 1528 1532 1537 1541 1545 1549 1552 1555 1557 1559 1561 1564 1566 1568 1569 1571 1572 1573 1575 1576 1577 1578 1579 1579 1580 1580 1581 1582 1583 1583 1584 1585 1586 1585 1586 1586 1587
1502 1505 1510 1514 1518 1522 1526 1530 1535 1539 1543 1547 1550 1553 1555 1558 1560 1563 1565 1566 1568 1570 1571 1572 1573 1574 1576 1577 1578 1578 1579 1579 1580 1581 1582 1582 1583 1584 1585 1585 1585 1585 1585
1498 1502 1505 1509 1515 1519 1523 1527 1532 1536 1541 1544 1547 1550 1553 1556 1559 1561 1564 1565 1566 1569 1570 1571 1572 1573 1575 1576 1577 1577 1578 1578 1579 1580 1581 1582 1582 1583 1583 1583 1584 1585 1584
1494 1499 1502 1506 1511 1516 1520 1525 1530 1534 1538 1542 1545 1548 1551 1554 1557 1560 1561 1563 1565 1567 1568 1569 1570 1573 1574 1574 1576 1576 1577 1578 1577 1578 1579 1580 1581 1581 1582 1582 1582 1583 1584
1491 1495 1499 1504 1508 1513 1518 1522 1527 1531 1535 1539 1542 1546 1549 1552 1555 1557 1559 1562 1563 1565 1566 1567 1568 1570 1572 1573 1574 1576 1575 1574 1576 1577 1577 1578 1579 1580 1581 1581 1581 1581 1582
1490 1493 1497 1501 1505 1510 1515 1519 1523 1527 1531 1536 1540 1543 1546 1549 1552 1555 1557 1559 1561 1563 1564 1565 1567 1568 1570 1572 1572 1573 1574 1574 1575 1575 1576 1577 1577 1578 1579 1580 1580 1580 1580
1488 1491 1495 1499 1502 1507 1511 1516 1521 1525 1529 1534 1537 1540 1543 1547 1550 1552 1554 1557 1558 1561 1562 1563 1564 1566 1568 1570 1571 1571 1572 1573 1574 1574 1574 1575 1576 1576 1577 1577 1578 1578 1578
1487 1490 1493 1496 1499 1503 1507 1512 1517 1522 1526 1530 1534 1537 1540 1544 1546 1549 1552 1554 1556 1558 1559 1561 1562 1564 1565 1567 1568 1570 1571 1571 1572 1572 1573 1573 1574 1574 1574 1575 1576 1576 1576